Theta_e
321 318 324 326 323 322 333 341 345 344 344 343 344 343 339 344 347 349 349 341 342 341 341 341 340 332 324 323 323 322 322 323 324 325 325 325 325 325 326 328 331 333 335 336 336 337 339 342 344
320 318 321 324 320 323 324 332 344 340 342 341 342 345 349 349 351 349 344 338 341 339 339 340 341 340 329 323 323 322 322 323 324 326 326 326 326 326 326 326 326 328 330 331 332 333 335 338 341
318 318 326 315 315 321 323 332 338 340 341 340 338 341 345 352 352 348 333 338 340 339 337 337 340 342 337 324 324 324 323 323 323 324 324 325 325 325 326 325 326 326 326 327 328 328 329 329 330
318 319 320 318 321 320 325 335 340 341 341 342 340 339 350 353 352 347 338 342 339 338 335 335 339 342 341 332 324 324 324 324 324 325 327 328 328 328 327 327 326 325 324 323 324 325 326 326 326
320 321 317 318 319 318 320 334 339 335 340 342 340 343 353 353 351 348 345 343 337 336 333 332 336 342 342 339 332 328 328 330 332 333 335 336 336 335 334 333 332 330 328 328 327 327 327 327 327
320 318 317 320 319 320 323 334 337 336 337 339 340 345 349 351 348 347 347 343 338 333 329 329 335 342 343 342 339 335 334 336 338 339 339 337 331 330 331 331 331 330 328 328 327 326 325 324 324
318 313 316 317 319 321 321 336 337 336 336 337 338 345 350 353 352 348 341 337 334 329 327 330 336 342 344 343 341 340 339 340 340 337 330 327 327 326 325 325 326 339 345 344 339 336 335 334 343
321 315 316 316 318 322 326 337 337 337 335 331 337 350 350 353 353 347 338 335 331 328 330 334 339 342 342 342 341 341 340 335 327 325 326 325 327 332 340 343 345 346 347 346 346 343 343 345 346
319 315 316 317 319 321 330 329 324 327 335 338 339 343 344 347 354 344 338 334 331 329 330 335 338 338 338 336 332 329 326 326 328 329 331 333 342 345 348 346 345 345 343 339 335 339 345 346 347
317 313 315 316 319 320 321 320 322 326 336 338 345 349 351 354 353 343 338 334 330 328 327 326 326 326 326 327 329 330 332 333 333 334 335 337 348 349 347 345 338 332 326 334 331 326 325 328 337
316 315 316 319 322 322 321 322 322 323 331 340 348 354 353 353 352 347 338 334 331 330 329 331 331 332 333 334 334 334 335 336 337 339 344 348 348 347 342 335 322 322 323 326 328 329 328 327 325
316 315 318 319 320 320 319 321 320 322 324 327 340 351 353 352 352 347 338 335 332 332 333 334 335 335 335 335 337 340 341 343 345 344 344 341 335 329 321 321 322 324 324 324 325 323 324 326 327
313 313 316 318 318 319 318 319 320 321 324 326 338 346 349 349 350 352 342 337 333 333 334 335 336 336 338 344 343 343 340 332 325 327 319 317 318 320 320 319 317 315 314 314 313 313 313 313 314
315 314 315 317 317 317 317 318 319 323 325 325 332 341 345 348 350 353 347 342 335 334 336 338 339 340 343 339 335 333 331 324 320 318 318 316 318 319 315 314 314 313 312 312 311 311 312 312 312
314 313 312 313 316 315 318 317 320 326 323 323 329 339 346 348 350 351 351 348 338 336 338 340 342 342 338 333 331 330 324 323 319 318 316 315 316 315 315 315 314 313 312 311 311 310 310 310 311
312 311 313 312 315 317 317 316 318 323 327 328 334 341 347 351 349 351 352 351 341 338 339 342 343 341 337 333 330 329 327 325 320 318 316 316 316 316 316 316 315 314 313 312 311 310 310 310 310
308 312 312 313 314 316 316 316 317 321 328 337 344 348 352 352 352 352 352 353 348 340 341 345 342 342 340 338 333 331 329 328 321 318 316 316 316 317 317 316 316 315 315 314 312 310 310 309 309
311 312 311 313 314 313 313 314 315 326 329 330 329 342 352 353 353 353 353 353 353 343 343 345 344 344 344 344 339 333 329 329 322 318 317 317 317 317 317 317 317 316 316 314 311 309 309 309 309
310 311 312 311 312 314 312 312 313 321 324 327 328 326 345 351 352 353 353 353 354 350 345 346 346 347 347 343 340 333 327 327 320 318 318 317 317 318 317 317 317 317 316 316 314 311 309 309 309
311 311 310 310 310 311 311 311 311 313 319 325 327 328 329 346 348 349 351 352 353 353 347 347 347 348 346 342 332 329 327 325 317 318 318 317 318 318 317 317 317 317 316 316 316 314 310 308 308
310 310 311 311 311 311 311 310 313 314 316 320 324 326 329 336 345 346 347 348 348 351 351 349 348 350 348 344 331 328 327 322 319 319 318 318 318 318 318 317 317 317 317 316 316 315 311 309 308
311 310 312 312 312 311 311 311 311 312 314 315 320 325 327 327 330 336 345 346 347 348 351 351 350 351 349 342 331 329 328 320 315 318 318 318 319 318 318 317 317 317 317 316 316 316 313 309 308
311 312 311 312 311 311 312 310 310 311 312 312 314 320 322 325 326 330 337 345 345 346 348 352 352 351 349 340 332 331 328 317 315 318 318 319 319 319 318 318 317 317 317 316 316 316 315 311 309
314 314 311 308 309 312 313 311 311 311 313 314 314 318 320 323 327 329 332 342 344 344 348 352 353 352 348 338 332 332 324 315 315 318 318 319 319 320 319 318 317 317 317 317 316 316 316 313 309
314 312 313 314 313 316 313 310 312 312 312 313 313 318 319 319 323 328 332 339 344 345 346 350 354 352 347 338 333 330 317 314 314 316 318 319 318 320 319 318 318 317 317 317 317 316 316 314 310
314 311 313 316 315 315 311 313 312 312 315 319 317 317 318 318 318 322 327 333 337 344 345 348 353 350 345 336 330 319 317 314 314 316 318 320 319 320 320 319 318 317 317 317 317 316 315 314 311
317 312 311 313 313 312 312 313 315 318 318 317 318 318 318 320 321 319 324 328 333 340 345 346 351 350 345 336 325 319 317 315 314 317 319 321 322 321 321 320 318 318 318 317 317 316 315 314 312
314 311 316 312 316 316 313 314 318 320 318 317 317 318 320 322 321 321 318 323 330 334 343 344 349 350 346 337 326 319 318 316 315 318 319 323 325 324 321 320 318 318 318 317 316 315 314 314 313
313 309 309 314 312 313 314 314 320 318 316 316 316 320 320 322 323 321 320 319 323 330 337 344 347 346 345 335 327 320 318 317 316 317 320 323 325 324 321 320 318 318 318 317 316 315 314 314 313
305 305 306 315 318 312 311 313 317 316 315 315 315 315 320 320 324 323 320 317 321 328 333 336 340 339 339 336 328 322 320 318 317 317 321 323 324 322 321 320 319 319 318 317 315 314 314 314 314
Wind_Speed
4 2 1 1 3 4 2 5 1 1 1 3 7 7 8 5 4 4 5 29 29 29 27 25 22 20 20 20 19 18 18 17 15 14 13 13 12 11 11 10 10 9 8 7 7 6 7 6 6
4 3 2 1 4 3 4 3 5 6 5 4 6 5 5 5 6 2 19 30 30 28 27 26 24 21 20 20 19 18 17 17 15 14 13 12 11 10 9 8 7 7 6 5 4 3 3 3 3
4 4 1 4 3 4 4 4 6 5 9 9 6 3 5 2 6 8 28 28 29 30 28 28 26 23 20 20 20 18 17 16 15 14 12 11 9 8 7 6 5 5 4 3 2 1 2 3 4
5 4 4 4 5 5 5 6 9 5 11 11 9 4 2 1 2 20 28 26 29 29 27 26 26 24 21 20 19 18 17 15 14 12 11 9 7 6 5 4 4 3 2 2 1 2 2 3 4
8 3 4 1 5 5 5 10 8 4 8 13 11 5 3 4 8 26 26 25 29 28 27 26 26 25 22 20 19 18 17 15 13 11 9 7 6 4 3 3 2 2 2 2 2 2 3 3 4
4 3 3 4 5 5 7 10 3 5 7 15 10 6 3 3 6 23 23 25 27 27 27 27 27 26 23 20 19 18 16 14 12 10 8 6 4 3 3 2 2 2 2 2 2 2 3 3 4
6 4 5 5 3 4 6 3 5 6 2 7 1 5 4 11 12 20 24 27 27 26 26 27 27 26 22 20 19 17 15 13 11 9 7 6 5 5 5 5 5 4 3 2 1 2 2 3 4
4 4 5 4 5 5 4 3 3 12 6 21 16 7 5 19 20 23 27 27 27 25 26 27 26 25 22 20 18 16 14 12 10 9 8 7 8 7 7 6 5 2 1 1 2 2 3 4 4
4 3 4 7 7 4 1 2 6 5 11 14 16 13 10 21 27 31 32 31 30 28 26 26 25 24 21 19 18 16 14 13 12 11 10 9 8 8 7 5 3 1 2 4 5 6 5 5 5
5 3 10 7 5 3 3 7 7 4 6 10 17 11 11 29 32 35 36 36 35 32 28 26 24 23 22 20 18 16 15 14 12 11 10 10 9 7 4 2 2 5 6 6 8 8 8 8 9
6 6 6 5 6 3 3 7 12 8 2 11 20 23 17 26 29 33 36 35 34 31 29 27 26 23 21 20 18 17 15 14 13 12 9 8 7 5 2 3 4 6 7 8 10 11 11 11 12
2 9 8 6 6 3 6 6 7 10 23 14 20 27 26 23 34 36 36 36 35 33 30 29 27 25 22 20 17 16 15 14 12 11 10 7 5 3 0 3 6 9 11 13 14 15 16 16 17
4 5 8 15 18 19 14 14 11 19 22 16 14 23 28 28 34 37 37 37 36 35 33 31 28 26 23 20 18 17 15 13 10 9 7 5 4 2 3 6 7 9 11 12 12 13 13 14 14
6 7 11 14 18 10 6 9 10 23 18 11 13 25 26 30 34 39 42 41 40 36 33 32 30 27 25 23 20 17 15 11 8 8 5 5 3 1 2 4 6 8 10 10 11 12 12 13 13
8 5 6 5 9 7 8 6 13 45 24 19 16 21 31 38 39 46 47 44 41 39 35 34 32 31 27 24 20 18 14 11 7 7 6 6 5 4 4 5 6 8 10 13 14 13 13 12 12
3 3 1 5 2 5 11 9 8 29 32 18 19 24 30 34 42 48 47 44 42 41 39 35 33 32 30 27 22 18 14 12 8 8 9 9 7 6 5 5 7 9 12 13 13 14 15 14 14
5 3 4 6 3 3 6 5 4 11 24 9 18 26 31 35 38 42 46 46 43 42 40 38 36 34 32 29 24 20 16 14 9 9 11 9 8 5 5 6 8 11 13 15 17 18 18 18 16
5 4 4 4 3 4 6 6 7 2 18 20 14 17 26 33 43 47 48 46 44 43 41 39 38 35 33 30 28 25 21 18 13 13 14 11 8 5 4 5 8 11 13 15 18 20 20 20 19
5 4 5 3 5 2 7 5 10 14 13 25 28 23 27 37 41 44 43 41 42 44 45 42 40 37 35 34 33 31 28 24 18 18 16 12 8 5 4 4 7 9 12 16 19 20 20 21 22
5 5 5 6 5 5 5 9 10 8 15 28 40 49 31 41 40 41 42 43 46 45 48 47 44 39 36 34 34 32 29 25 20 20 18 14 9 6 3 4 6 9 12 14 17 20 22 23 25
4 5 4 8 5 3 3 7 5 8 18 28 34 46 40 40 44 44 47 48 48 49 52 53 49 42 37 37 36 33 31 26 26 26 22 16 12 8 3 2 5 8 10 13 17 19 21 21 21
6 8 8 6 2 4 4 5 6 7 9 8 25 30 39 40 43 43 51 51 53 54 52 56 51 45 41 39 38 36 35 34 32 28 23 17 13 10 5 1 3 7 9 12 15 18 20 20 19
8 7 8 5 5 3 4 2 7 3 6 10 11 28 34 43 41 43 53 59 55 54 55 57 55 49 44 43 41 38 36 32 30 28 24 20 16 12 6 1 2 5 8 10 14 17 18 19 18
5 4 5 5 3 2 5 7 5 5 7 5 8 33 29 33 37 40 45 58 57 56 55 56 59 52 48 45 42 41 37 33 33 32 28 24 18 14 9 4 3 5 7 10 12 15 17 18 17
4 5 2 3 0 10 2 5 8 8 9 9 9 19 21 17 29 40 45 54 52 57 57 57 60 57 53 50 46 44 39 35 34 33 30 26 21 16 11 6 4 5 8 11 13 14 15 16 15
4 8 6 6 5 7 4 6 6 8 9 20 9 9 15 14 20 37 47 54 55 60 61 61 62 60 55 52 48 44 40 37 34 32 29 25 18 14 12 8 5 6 8 10 13 14 14 15 15
3 3 6 2 1 3 4 7 2 14 13 18 20 16 15 13 11 26 40 47 55 61 66 66 65 63 59 55 50 45 41 39 34 31 27 22 19 16 14 10 7 7 8 10 12 13 14 15 15
5 3 2 2 4 4 4 2 3 12 13 14 15 20 23 20 19 17 29 44 51 59 64 65 67 67 64 60 53 47 45 40 33 30 27 24 21 18 17 12 9 8 7 10 12 13 14 15 17
4 4 4 2 3 4 3 2 3 5 7 9 10 22 26 24 23 23 24 38 47 55 62 69 68 66 67 63 56 51 47 39 32 30 28 25 21 19 18 13 10 8 8 10 12 14 16 18 19
9 4 3 1 2 1 2 4 6 7 8 12 17 24 27 28 24 22 16 31 40 48 53 62 66 67 67 63 58 54 44 39 33 29 27 24 21 20 17 13 12 10 9 10 12 16 19 22 23
Wind_Direction
193 191 199 341 42 60 251 254 305 253 289 191 160 174 201 178 180 204 185 169 173 174 170 170 168 169 177 176 168 162 158 153 149 145 142 141 141 139 136 130 127 123 117 111 103 93 85 85 77
174 162 213 97 86 35 274 190 217 225 180 181 180 188 180 201 235 264 158 165 173 179 175 176 173 174 179 180 173 167 162 159 156 153 149 147 144 140 136 135 134 133 133 127 116 98 81 69 44
167 152 135 92 110 188 225 207 179 223 205 201 144 128 151 188 211 174 166 170 177 182 179 179 177 177 180 180 177 172 168 167 165 161 155 152 147 145 138 131 131 135 140 133 121 81 34 16 359
156 139 70 94 224 248 218 268 180 211 217 197 142 127 154 263 258 176 170 180 176 181 183 182 179 179 180 180 179 176 174 173 170 165 161 159 156 148 136 127 119 110 101 89 57 29 3 348 341
161 131 73 107 266 266 249 261 215 279 184 171 169 175 105 24 160 170 172 179 181 185 185 183 183 183 183 182 181 180 179 177 175 171 172 167 164 158 150 137 111 82 62 43 25 12 355 342 333
133 122 89 211 246 261 269 256 204 249 292 158 178 133 136 137 174 179 184 185 185 187 185 183 184 185 186 185 185 184 183 182 180 182 183 181 178 167 154 128 102 78 58 27 359 340 318 312 319
151 113 206 180 231 298 253 199 207 258 304 294 240 134 192 181 203 189 182 184 187 188 184 182 183 185 187 188 188 188 188 187 187 191 188 179 159 145 132 122 113 108 83 43 15 329 339 340 348
221 114 143 210 185 241 286 215 212 238 291 292 265 197 186 185 192 190 186 189 189 186 184 180 183 186 189 190 190 191 191 191 186 179 171 156 146 140 137 134 138 135 99 14 345 322 339 336 344
194 80 185 193 169 237 234 34 299 252 265 221 209 235 220 191 190 188 189 193 187 186 183 182 183 186 186 188 187 186 184 178 175 172 168 158 151 154 156 160 162 218 317 327 334 323 324 328 322
159 156 204 200 199 166 218 265 293 260 249 225 207 181 183 182 185 191 194 195 189 183 180 181 182 182 181 182 182 180 180 176 174 174 177 173 169 168 190 228 320 317 321 332 332 337 335 309 296
180 203 202 242 209 283 231 256 287 290 236 219 198 187 179 186 186 196 201 200 196 181 181 179 181 181 181 181 180 181 181 181 181 183 181 182 177 190 238 293 325 336 336 326 322 323 325 317 314
202 233 227 195 214 254 262 279 281 256 274 289 228 201 192 197 201 202 207 205 201 188 183 181 181 181 180 181 185 188 188 184 178 181 187 198 202 200 140 2 350 337 330 323 316 312 308 306 305
212 238 239 257 265 263 264 253 247 267 273 287 228 201 207 209 206 203 208 210 205 196 186 184 182 181 180 181 187 186 181 179 181 185 185 172 159 119 29 351 344 341 337 334 330 326 320 316 311
235 238 253 261 262 247 214 259 211 257 263 270 225 216 213 209 205 199 208 211 207 199 190 187 185 183 181 180 180 182 179 183 174 173 161 161 147 89 27 23 14 5 358 357 355 350 343 335 331
262 289 303 242 257 212 212 255 200 244 265 256 256 232 217 212 204 208 208 210 207 201 192 192 187 182 180 178 177 177 180 182 177 162 154 149 145 125 87 56 37 25 18 12 7 359 356 350 344
336 64 312 279 6 241 172 250 225 248 233 238 228 221 221 208 212 207 209 212 209 204 196 194 189 186 183 180 179 176 176 181 179 162 158 154 145 122 95 68 44 35 28 19 11 8 5 5 0
352 235 224 308 249 257 175 257 300 283 197 261 230 217 203 207 207 207 212 214 211 209 199 196 192 190 187 187 186 186 190 189 182 174 167 160 153 131 91 61 44 38 29 18 14 9 6 7 10
223 223 241 221 286 44 313 273 313 140 150 181 241 245 203 205 212 211 217 217 214 214 206 201 194 194 193 194 193 195 200 195 192 185 178 175 164 132 93 59 42 37 27 20 17 16 10 7 13
210 202 230 248 240 252 254 255 271 232 218 204 217 236 214 211 221 216 218 223 219 217 211 203 199 197 198 197 198 200 202 199 194 186 184 178 171 150 111 72 43 32 18 19 15 18 15 8 13
202 239 270 274 261 175 269 271 260 218 225 213 207 233 236 218 211 212 218 225 228 221 214 210 206 203 204 207 204 202 202 201 197 190 189 186 182 172 131 65 34 24 19 17 14 16 19 11 10
207 189 224 234 297 252 276 292 232 265 217 225 221 221 220 218 218 213 217 223 228 225 219 211 207 207 209 211 207 203 202 200 195 195 195 191 186 184 153 79 36 19 15 14 15 15 16 19 11
236 209 231 249 135 256 152 280 252 256 233 222 221 222 218 222 225 227 224 220 225 229 222 213 211 209 212 213 210 211 206 203 201 197 195 192 192 192 183 113 26 11 12 14 13 11 12 11 15
223 207 205 215 209 71 240 231 269 294 260 250 248 238 233 231 231 224 225 224 226 225 223 215 213 210 212 212 215 216 213 214 203 195 196 197 199 196 197 202 340 356 3 7 9 6 6 7 5
199 145 52 52 108 252 189 183 264 215 208 250 221 241 247 231 224 227 229 223 221 221 219 213 213 211 211 212 216 220 218 212 204 200 200 200 201 199 205 224 298 337 347 355 360 1 358 359 358
120 79 297 312 163 248 231 137 234 242 238 230 228 250 251 247 235 227 223 220 217 216 216 214 214 211 210 212 216 219 216 213 208 206 203 200 202 204 209 226 279 314 333 340 346 350 347 348 349
212 165 166 228 209 258 123 232 252 253 13 10 353 302 285 284 253 234 229 224 221 220 218 216 215 212 211 213 216 217 214 214 211 210 208 209 208 209 217 230 267 292 317 326 332 337 336 338 339
314 181 155 177 356 97 230 288 303 4 1 357 349 352 349 327 270 246 234 229 225 222 220 218 216 215 213 213 215 214 213 214 211 209 211 212 211 217 227 239 266 281 306 317 323 326 325 329 329
69 352 67 7 208 233 268 280 301 347 341 342 342 343 358 346 316 268 244 238 229 227 223 219 219 218 215 213 213 213 213 213 209 209 213 214 217 224 234 240 262 278 291 306 317 319 320 322 324
336 23 -0 125 140 196 214 273 331 304 312 324 330 344 4 6 338 300 244 236 234 228 224 224 220 220 217 214 213 214 213 209 208 214 218 220 223 232 231 240 256 262 283 304 316 320 322 321 320
65 48 48 65 207 226 177 244 332 323 312 338 344 347 6 15 6 336 277 228 227 221 218 221 222 221 221 216 215 216 210 206 205 212 217 221 225 223 231 242 248 251 276 303 318 323 321 319 316